OpenBCM V1.08-5-g2f4a (Linux)

Packet Radio Mailbox

IZ3LSV

[San Dona' di P. JN]

 Login: GUEST





  
CX2SA  > KEPS     19.07.13 03:19l 332 Lines 8703 Bytes #999 (0) @ WW
BID : ORB13199.D
Read: GUEST
Subj: Orbital Elements  13199.MICROS
Path: IZ3LSV<IQ5KG<IK1NHL<CX2SA
Sent: 130719/0112Z @:CX2SA.SAL.URY.SA #:8670 [Salto] FBB7.00e $:ORB13199.D
From: CX2SA@CX2SA.SAL.URY.SA
To  : KEPS@AMSAT


HR AMSAT ORBITAL ELEMENTS FOR THE MICROSATS
FROM WA5QGD FORT WORTH,TX July 18, 2013
BID: ORB13199.D
TO ALL RADIO AMATEURS BT

Satellite: UO-11
Catalog number: 14781
Epoch time:      13199.72867446
Element set:     233
Inclination:      097.9008 deg
RA of node:       260.5869 deg
Eccentricity:    0.0009320
Arg of perigee:   177.6079 deg
Mean anomaly:     182.5180 deg
Mean motion:   14.80949483 rev/day
Decay rate:       3.30e-06 rev/day^2
Epoch rev:           57860
Checksum:              335

Satellite: AO-16
Catalog number: 20439
Epoch time:      13198.89536133
Element set:     795
Inclination:      098.4718 deg
RA of node:       138.2114 deg
Eccentricity:    0.0011990
Arg of perigee:   071.2923 deg
Mean anomaly:     001.9350 deg
Mean motion:   14.32189273 rev/day
Decay rate:        4.8e-07 rev/day^2
Epoch rev:           22663
Checksum:              307

Satellite: LO-19
Catalog number: 20442
Epoch time:      13199.83416263
Element set:     730
Inclination:      098.4412 deg
RA of node:       140.8131 deg
Eccentricity:    0.0012787
Arg of perigee:   059.5547 deg
Mean anomaly:     357.2605 deg
Mean motion:   14.32399681 rev/day
Decay rate:        4.1e-07 rev/day^2
Epoch rev:           22696
Checksum:              309

Satellite: AO-27
Catalog number: 22825
Epoch time:      13199.76486209
Element set:     433
Inclination:      098.6195 deg
RA of node:       143.4583 deg
Eccentricity:    0.0008389
Arg of perigee:   187.7880 deg
Mean anomaly:     203.0156 deg
Mean motion:   14.29576558 rev/day
Decay rate:        3.4e-07 rev/day^2
Epoch rev:            3314
Checksum:              334

Satellite: IO-26
Catalog number: 22826
Epoch time:      13199.82614965
Element set:     189
Inclination:      098.6137 deg
RA of node:       143.7992 deg
Eccentricity:    0.0009035
Arg of perigee:   181.6391 deg
Mean anomaly:     198.3658 deg
Mean motion:   14.29862088 rev/day
Decay rate:        4.1e-07 rev/day^2
Epoch rev:            3328
Checksum:              345

Satellite: GO-32
Catalog number: 25397
Epoch time:      13198.83371338
Element set:     115
Inclination:      098.4173 deg
RA of node:       165.2624 deg
Eccentricity:    0.0001489
Arg of perigee:   155.7104 deg
Mean anomaly:     235.5197 deg
Mean motion:   14.23350008 rev/day
Decay rate:       -4.0e-08 rev/day^2
Epoch rev:           78030
Checksum:              292

Satellite: NO-44
Catalog number: 26931
Epoch time:      13199.02871604
Element set:     374
Inclination:      067.0513 deg
RA of node:       180.0027 deg
Eccentricity:    0.0007953
Arg of perigee:   276.1640 deg
Mean anomaly:     169.4943 deg
Mean motion:   14.29941806 rev/day
Decay rate:       -1.9e-07 rev/day^2
Epoch rev:           61583
Checksum:              309

Satellite: SO-50
Catalog number: 27607
Epoch time:      13199.75419772
Element set:     118
Inclination:      064.5569 deg
RA of node:       168.0333 deg
Eccentricity:    0.0041329
Arg of perigee:   153.5738 deg
Mean anomaly:     267.0242 deg
Mean motion:   14.73000864 rev/day
Decay rate:       2.59e-06 rev/day^2
Epoch rev:           56836
Checksum:              322

Satellite: CO-55
Catalog number: 27844
Epoch time:      13199.54739216
Element set:     695
Inclination:      098.7011 deg
RA of node:       208.1640 deg
Eccentricity:    0.0010501
Arg of perigee:   153.1921 deg
Mean anomaly:     352.8861 deg
Mean motion:   14.21242999 rev/day
Decay rate:       1.16e-06 rev/day^2
Epoch rev:           52118
Checksum:              302

Satellite: CO-57
Catalog number: 27848
Epoch time:      13199.55389676
Element set:     641
Inclination:      098.7097 deg
RA of node:       207.6991 deg
Eccentricity:    0.0010276
Arg of perigee:   158.6545 deg
Mean anomaly:     347.4253 deg
Mean motion:   14.20966100 rev/day
Decay rate:        9.5e-07 rev/day^2
Epoch rev:           52111
Checksum:              340

Satellite: AO-51
Catalog number: 28375
Epoch time:      13198.86348810
Element set:     607
Inclination:      098.2033 deg
RA of node:       153.0957 deg
Eccentricity:    0.0082066
Arg of perigee:   283.3563 deg
Mean anomaly:     109.6395 deg
Mean motion:   14.41140410 rev/day
Decay rate:        6.1e-07 rev/day^2
Epoch rev:           47575
Checksum:              310

Satellite: CP3
Catalog number: 31129
Epoch time:      13197.99193801
Element set:     505
Inclination:      097.8990 deg
RA of node:       188.9493 deg
Eccentricity:    0.0099087
Arg of perigee:   335.4004 deg
Mean anomaly:     088.6435 deg
Mean motion:   14.53731495 rev/day
Decay rate:       4.54e-06 rev/day^2
Epoch rev:           33132
Checksum:              336

Satellite: CO-65
Catalog number: 32785
Epoch time:      13199.11803905
Element set:     686
Inclination:      097.7495 deg
RA of node:       255.7690 deg
Eccentricity:    0.0014213
Arg of perigee:   199.9745 deg
Mean anomaly:     193.1735 deg
Mean motion:   14.83980849 rev/day
Decay rate:       7.83e-06 rev/day^2
Epoch rev:           28246
Checksum:              369

Satellite: PRISM
Catalog number: 33493
Epoch time:      13199.72546820
Element set:     994
Inclination:      098.2214 deg
RA of node:       357.7049 deg
Eccentricity:    0.0019452
Arg of perigee:   090.3455 deg
Mean anomaly:     269.9989 deg
Mean motion:   14.86200607 rev/day
Decay rate:      2.870e-05 rev/day^2
Epoch rev:           24260
Checksum:              334

Satellite: SOHLA-1
Catalog number: 33496
Epoch time:      13199.79361762
Element set:      98
Inclination:      098.1386 deg
RA of node:       315.7342 deg
Eccentricity:    0.0006150
Arg of perigee:   209.9029 deg
Mean anomaly:     300.6017 deg
Mean motion:   14.70327232 rev/day
Decay rate:       2.17e-06 rev/day^2
Epoch rev:           24051
Checksum:              290

Satellite: SO-67
Catalog number: 35870
Epoch time:      13199.75554260
Element set:     248
Inclination:      097.1896 deg
RA of node:       227.3792 deg
Eccentricity:    0.0001647
Arg of perigee:   146.8257 deg
Mean anomaly:     339.0760 deg
Mean motion:   15.27483625 rev/day
Decay rate:      5.183e-05 rev/day^2
Epoch rev:           21307
Checksum:              340

Satellite: TISAT-1
Catalog number: 36799
Epoch time:      13199.75368492
Element set:     267
Inclination:      098.0340 deg
RA of node:       284.6336 deg
Eccentricity:    0.0013804
Arg of perigee:   331.0325 deg
Mean anomaly:     029.0116 deg
Mean motion:   14.83465358 rev/day
Decay rate:      1.926e-05 rev/day^2
Epoch rev:           16325
Checksum:              316

Satellite: STUDSAT
Catalog number: 36801
Epoch time:      13199.16413613
Element set:     654
Inclination:      098.0455 deg
RA of node:       287.4728 deg
Eccentricity:    0.0010013
Arg of perigee:   309.1568 deg
Mean anomaly:     081.1477 deg
Mean motion:   14.88799206 rev/day
Decay rate:      4.507e-05 rev/day^2
Epoch rev:           16332
Checksum:              308

Satellite: ALMASAT-1
Catalog number: 38078
Epoch time:      13199.84049726
Element set:     445
Inclination:      069.4696 deg
RA of node:       127.4764 deg
Eccentricity:    0.0687259
Arg of perigee:   106.5694 deg
Mean anomaly:     261.1905 deg
Mean motion:   14.26298158 rev/day
Decay rate:     1.9474e-04 rev/day^2
Epoch rev:            7375
Checksum:              367

Satellite: XATCOBEO
Catalog number: 38082
Epoch time:      13199.81331860
Element set:     333
Inclination:      069.4688 deg
RA of node:       099.0662 deg
Eccentricity:    0.0555893
Arg of perigee:   090.9563 deg
Mean anomaly:     275.5224 deg
Mean motion:   14.59952511 rev/day
Decay rate:     6.2506e-04 rev/day^2
Epoch rev:            7453
Checksum:              337

Satellite: SOMP
Catalog number: 39135
Epoch time:      13198.81403694
Element set:     190
Inclination:      064.8778 deg
RA of node:       112.3930 deg
Eccentricity:    0.0010149
Arg of perigee:   203.3052 deg
Mean anomaly:     194.2371 deg
Mean motion:   15.00484136 rev/day
Decay rate:      3.863e-05 rev/day^2
Epoch rev:            1342
Checksum:              274

Satellite: CUBEBUG-1
Catalog number: 39153
Epoch time:      13199.10648314
Element set:     229
Inclination:      098.0732 deg
RA of node:       274.8553 deg
Eccentricity:    0.0018026
Arg of perigee:   349.5259 deg
Mean anomaly:     010.5581 deg
Mean motion:   14.76507761 rev/day
Decay rate:       9.91e-06 rev/day^2
Epoch rev:            1224
Checksum:              304

Satellite: ESTCUBE-1
Catalog number: 39161
Epoch time:      13199.76915256
Element set:     197
Inclination:      098.1258 deg
RA of node:       277.8592 deg
Eccentricity:    0.0010660
Arg of perigee:   018.4122 deg
Mean anomaly:     341.7462 deg
Mean motion:   14.69026388 rev/day
Decay rate:       9.05e-06 rev/day^2
Epoch rev:            1063
Checksum:              314



Read previous mail | Read next mail


 16.09.2025 04:48:22lGo back Go up